Zurück zum Katalog

COSMOS 1217

AktivNavigationHEO
NORAD 12032·PAYLOAD·🇷🇺 Russia

Gestartet Oct 24, 1980 von Plesetsk Cosmodrome

Loading…

Nächste Überflüge (nächste 24 Stunden)

TLE

AktuellSource: Space-Track

Epoche: Sep 10, 2026, 18:09 UTC

1 12032U 80085A   26253.75691224 -.00000700  00000-0  00000-0 0  9991
2 12032  70.1610 173.4846 5784669 236.3397  54.9235  2.00996154283935

Verfolge COSMOS 1217 in Echtzeit mit AllMySat

Download on the App Store